18-09-2022, 00:00:01,    324,    0.0,    8.3,   0.00,   0.00, 1017.9,   66.4, -999.0
18-09-2022, 00:00:10,    324,    0.0,    8.2,   0.00,   0.00, 1017.9,   66.4, -999.0
18-09-2022, 00:00:21,    324,    0.0,    8.3,   0.00,   0.00, 1017.9,   66.5, -999.0
18-09-2022, 00:00:31,    324,    0.0,    8.2,   0.00,   0.00, 1017.9,   66.5, -999.0
18-09-2022, 00:00:40,    324,    0.5,    8.3,   0.00,   0.00, 1017.9,   66.8, -999.0
18-09-2022, 00:00:50,    324,    0.7,    8.4,   0.00,   0.00, 1018.0,   66.8, -999.0
18-09-2022, 00:01:00,    324,    0.3,    8.3,   0.00,   0.00, 1018.0,   66.9, -999.0
18-09-2022, 00:01:10,    324,    0.9,    8.3,   0.00,   0.00, 1018.0,   66.9, -999.0
18-09-2022, 00:01:20,    324,    0.4,    8.3,   0.00,   0.00, 1017.9,   66.7, -999.0
18-09-2022, 00:01:30,    324,    0.5,    8.3,   0.00,   0.00, 1017.9,   66.8, -999.0
18-09-2022, 00:01:40,    324,    0.8,    8.4,   0.00,   0.00, 1018.0,   66.9, -999.0
18-09-2022, 00:01:50,    324,    0.5,    8.4,   0.00,   0.00, 1017.9,   66.9, -999.0
18-09-2022, 00:02:00,    324,    0.6,    8.4,   0.00,   0.00, 1018.0,   67.0, -999.0
18-09-2022, 00:02:10,    324,    0.3,    8.4,   0.00,   0.00, 1018.0,   66.9, -999.0
18-09-2022, 00:02:20,    324,    0.0,    8.4,   0.00,   0.00, 1017.9,   66.6, -999.0
18-09-2022, 00:02:30,    297,    1.3,    8.3,   0.00,   0.00, 1018.0,   66.9, -999.0
18-09-2022, 00:02:40,    297,    0.8,    8.4,   0.00,   0.00, 1018.0,   67.0, -999.0
18-09-2022, 00:02:51,    297,    1.4,    8.5,   0.00,   0.00, 1018.0,   67.0, -999.0
18-09-2022, 00:03:00,    296,    0.9,    8.5,   0.00,   0.00, 1018.0,   66.9, -999.0
18-09-2022, 00:03:10,    296,    0.4,    8.4,   0.00,   0.00, 1018.0,   67.0, -999.0
18-09-2022, 00:03:20,    296,    0.3,    8.5,   0.00,   0.00, 1017.9,   66.8, -999.0
18-09-2022, 00:03:30,    296,    0.0,    8.3,   0.00,   0.00, 1017.9,   66.7, -999.0
18-09-2022, 00:03:39,    296,    0.0,    8.4,   0.00,   0.00, 1017.9,   66.6, -999.0
18-09-2022, 00:03:49,    296,    0.5,    8.4,   0.00,   0.00, 1017.9,   66.9, -999.0
18-09-2022, 00:04:00,    298,    1.1,    8.4,   0.00,   0.00, 1018.0,   67.0, -999.0
18-09-2022, 00:04:09,    301,    1.0,    8.3,   0.00,   0.00, 1018.0,   67.1, -999.0
18-09-2022, 00:04:19,    300,    0.1,    8.4,   0.00,   0.00, 1017.9,   66.8, -999.0
18-09-2022, 00:04:29,    300,    0.0,    8.4,   0.00,   0.00, 1017.8,   66.6, -999.0
18-09-2022, 00:04:39,    300,    0.0,    8.4,   0.00,   0.00, 1017.8,   66.6, -999.0
18-09-2022, 00:04:49,    300,    0.0,    8.4,   0.00,   0.00, 1017.9,   66.6, -999.0
18-09-2022, 00:04:59,    300,    0.0,    8.3,   0.00,   0.00, 1017.8,   66.7, -999.0
18-09-2022, 00:05:09,    300,    0.0,    8.3,   0.00,   0.00, 1017.9,   66.6, -999.0
18-09-2022, 00:05:19,    296,    0.0,    8.3,   0.00,   0.00, 1017.8,   66.5, -999.0
18-09-2022, 00:05:29,    296,    0.0,    8.3,   0.00,   0.00, 1017.9,   66.7, -999.0
18-09-2022, 00:05:39,    297,    0.0,    8.3,   0.00,   0.00, 1017.8,   66.6, -999.0
18-09-2022, 00:05:49,    296,    0.0,    8.3,   0.00,   0.00, 1017.8,   66.7, -999.0
18-09-2022, 00:05:59,    297,    0.0,    8.2,   0.00,   0.00, 1017.8,   66.6, -999.0
18-09-2022, 00:06:09,    297,    0.0,    8.2,   0.00,   0.00, 1017.9,   66.8, -999.0
18-09-2022, 00:06:19,    297,    0.1,    8.3,   0.00,   0.00, 1017.9,   67.0, -999.0
18-09-2022, 00:06:29,    298,    1.1,    8.4,   0.00,   0.00, 1018.0,   67.2, -999.0
18-09-2022, 00:06:39,    298,    0.2,    8.4,   0.00,   0.00, 1017.9,   67.1, -999.0
18-09-2022, 00:06:48,    298,    0.0,    8.3,   0.00,   0.00, 1017.8,   66.9, -999.0
18-09-2022, 00:06:58,    298,    0.0,    8.3,   0.00,   0.00, 1017.8,   66.8, -999.0
18-09-2022, 00:07:09,    298,    0.0,    8.3,   0.00,   0.00, 1017.9,   66.8, -999.0
18-09-2022, 00:07:18,    298,    0.0,    8.3,   0.00,   0.00, 1017.8,   66.7, -999.0
18-09-2022, 00:07:28,    298,    0.0,    8.2,   0.00,   0.00, 1017.8,   66.7, -999.0
18-09-2022, 00:07:38,    298,    0.0,    8.2,   0.00,   0.00, 1017.8,   66.7, -999.0
18-09-2022, 00:07:48,    298,    0.0,    8.3,   0.00,   0.00, 1017.8,   66.8, -999.0
18-09-2022, 00:07:58,    298,    0.0,    8.3,   0.00,   0.00, 1017.8,   66.9, -999.0
18-09-2022, 00:08:08,    298,    0.0,    8.3,   0.00,   0.00, 1017.8,   66.9, -999.0
18-09-2022, 00:08:18,    298,    0.0,    8.3,   0.00,   0.00, 1017.8,   67.1, -999.0
18-09-2022, 00:08:28,    298,    0.6,    8.2,   0.00,   0.00, 1017.9,   67.3, -999.0
18-09-2022, 00:08:38,    301,    1.0,    8.4,   0.00,   0.00, 1018.0,   67.3, -999.0
18-09-2022, 00:08:48,    299,    1.2,    8.4,   0.00,   0.00, 1018.0,   67.4, -999.0
18-09-2022, 00:08:58,    300,    0.2,    8.4,   0.00,   0.00, 1017.9,   67.1, -999.0
18-09-2022, 00:09:08,    300,    0.2,    8.4,   0.00,   0.00, 1017.9,   67.2, -999.0
18-09-2022, 00:09:18,    300,    0.0,    8.3,   0.00,   0.00, 1017.8,   66.8, -999.0
18-09-2022, 00:09:28,    300,    0.0,    8.4,   0.00,   0.00, 1017.8,   66.9, -999.0
18-09-2022, 00:09:38,    300,    0.0,    8.3,   0.00,   0.00, 1017.8,   66.9, -999.0
18-09-2022, 00:09:48,    300,    0.0,    8.4,   0.00,   0.00, 1017.8,   66.9, -999.0
18-09-2022, 00:09:57,    300,    0.0,    8.4,   0.00,   0.00, 1017.8,   66.8, -999.0
18-09-2022, 00:10:07,    300,    0.0,    8.4,   0.00,   0.00, 1017.8,   66.8, -999.0
18-09-2022, 00:10:18,    310,    0.2,    8.4,   0.00,   0.00, 1017.9,   67.1, -999.0
18-09-2022, 00:10:27,    310,    0.4,    8.4,   0.00,   0.00, 1017.9,   67.2, -999.0
18-09-2022, 00:10:37,    279,    1.7,    8.5,   0.00,   0.00, 1018.0,   67.3, -999.0
18-09-2022, 00:10:47,    271,    1.4,    8.5,   0.00,   0.00, 1018.0,   67.3, -999.0
18-09-2022, 00:10:57,    287,    0.4,    8.4,   0.00,   0.00, 1017.9,   67.1, -999.0
18-09-2022, 00:11:07,    293,    1.8,    8.5,   0.00,   0.00, 1018.0,   67.4, -999.0
18-09-2022, 00:11:17,    336,    1.5,    8.5,   0.00,   0.00, 1018.0,   67.4, -999.0
18-09-2022, 00:11:27,    334,    1.4,    8.5,   0.00,   0.00, 1018.0,   67.3, -999.0
18-09-2022, 00:11:37,    334,    1.8,    8.4,   0.00,   0.00, 1018.0,   67.3, -999.0
18-09-2022, 00:11:47,    334,    1.8,    8.4,   0.00,   0.00, 1017.9,   67.2, -999.0
18-09-2022, 00:11:57,    334,    1.4,    8.4,   0.00,   0.00, 1017.9,   67.3, -999.0
18-09-2022, 00:12:07,    334,    0.9,    8.3,   0.00,   0.00, 1018.0,   67.3, -999.0
18-09-2022, 00:12:17,    334,    0.6,    8.4,   0.00,   0.00, 1017.9,   67.3, -999.0
18-09-2022, 00:12:27,    334,    0.6,    8.4,   0.00,   0.00, 1017.9,   67.3, -999.0
18-09-2022, 00:12:36,    334,    0.9,    8.4,   0.00,   0.00, 1018.0,   67.5, -999.0
18-09-2022, 00:12:47,    334,    0.6,    8.4,   0.00,   0.00, 1018.0,   67.4, -999.0
18-09-2022, 00:12:57,    334,    0.4,    8.3,   0.00,   0.00, 1018.0,   67.3, -999.0
18-09-2022, 00:13:06,    334,    0.5,    8.3,   0.00,   0.00, 1017.9,   67.3, -999.0
18-09-2022, 00:13:16,    334,    1.1,    8.4,   0.00,   0.00, 1018.0,   67.4, -999.0
18-09-2022, 00:13:27,    334,    0.4,    8.4,   0.00,   0.00, 1017.9,   67.2, -999.0
18-09-2022, 00:13:36,    334,    1.3,    8.4,   0.00,   0.00, 1017.9,   67.5, -999.0
18-09-2022, 00:13:46,    334,    0.0,    8.3,   0.00,   0.00, 1017.8,   67.1, -999.0
18-09-2022, 00:13:57,    332,    0.0,    8.3,   0.00,   0.00, 1017.8,   67.1, -999.0
18-09-2022, 00:14:06,    334,    0.0,    8.3,   0.00,   0.00, 1017.8,   67.1, -999.0
18-09-2022, 00:14:16,    334,    0.0,    8.3,   0.00,   0.00, 1017.8,   67.1, -999.0
18-09-2022, 00:14:26,    333,    0.0,    8.2,   0.00,   0.00, 1017.8,   67.0, -999.0
18-09-2022, 00:14:36,    333,    0.5,    8.3,   0.00,   0.00, 1017.9,   67.3, -999.0
18-09-2022, 00:14:46,    334,    0.0,    8.3,   0.00,   0.00, 1017.8,   67.0, -999.0
18-09-2022, 00:14:56,    333,    0.0,    8.3,   0.00,   0.00, 1017.8,   67.1, -999.0
18-09-2022, 00:15:06,    333,    0.0,    8.3,   0.00,   0.00, 1017.8,   67.1, -999.0
18-09-2022, 00:15:16,    334,    0.1,    8.3,   0.00,   0.00, 1017.8,   67.2, -999.0
18-09-2022, 00:15:26,    334,    0.2,    8.3,   0.00,   0.00, 1017.9,   67.4, -999.0
18-09-2022, 00:15:36,    334,    0.7,    8.4,   0.00,   0.00, 1018.0,   67.6, -999.0
18-09-2022, 00:15:46,    334,    0.8,    8.4,   0.00,   0.00, 1018.0,   67.6, -999.0
18-09-2022, 00:15:56,    334,    0.4,    8.3,   0.00,   0.00, 1017.9,   67.5, -999.0
18-09-2022, 00:16:06,    334,    0.2,    8.1,   0.00,   0.00, 1017.9,   67.4, -999.0
18-09-2022, 00:16:15,    320,    1.6,    8.3,   0.00,   0.00, 1017.9,   67.7, -999.0
18-09-2022, 00:16:26,    320,    1.0,    8.3,   0.00,   0.00, 1017.9,   67.7, -999.0
18-09-2022, 00:16:36,    320,    1.1,    8.4,   0.00,   0.00, 1017.9,   67.8, -999.0
18-09-2022, 00:16:45,    320,    0.4,    8.3,   0.00,   0.00, 1017.9,   67.6, -999.0
18-09-2022, 00:16:55,    320,    1.1,    8.3,   0.00,   0.00, 1018.0,   67.8, -999.0
18-09-2022, 00:17:05,    320,    1.2,    8.4,   0.00,   0.00, 1017.9,   67.8, -999.0
18-09-2022, 00:17:15,    320,    0.1,    8.3,   0.00,   0.00, 1017.9,   67.5, -999.0
18-09-2022, 00:17:25,    319,    1.0,    8.3,   0.00,   0.00, 1017.9,   67.8, -999.0
18-09-2022, 00:17:35,    337,    1.6,    8.3,   0.00,   0.00, 1017.9,   67.8, -999.0
18-09-2022, 00:17:45,    296,    0.6,    8.3,   0.00,   0.00, 1017.9,   67.8, -999.0
18-09-2022, 00:17:55,    296,    0.0,    8.3,   0.00,   0.00, 1017.8,   67.5, -999.0
18-09-2022, 00:18:05,    297,    0.1,    8.2,   0.00,   0.00, 1017.8,   67.6, -999.0
18-09-2022, 00:18:15,    297,    0.7,    8.4,   0.00,   0.00, 1017.9,   67.8, -999.0
18-09-2022, 00:18:25,    298,    0.3,    8.3,   0.00,   0.00, 1017.9,   67.8, -999.0
18-09-2022, 00:18:35,    298,    0.2,    8.3,   0.00,   0.00, 1017.9,   67.7, -999.0
18-09-2022, 00:18:45,    332,    0.7,    8.3,   0.00,   0.00, 1017.9,   67.8, -999.0
18-09-2022, 00:18:55,    329,    1.3,    8.4,   0.00,   0.00, 1017.9,   67.8, -999.0
18-09-2022, 00:19:05,    329,    0.8,    8.3,   0.00,   0.00, 1017.9,   67.9, -999.0
18-09-2022, 00:19:15,    337,    1.2,    8.3,   0.00,   0.00, 1018.0,   67.9, -999.0
18-09-2022, 00:19:24,    335,    0.5,    8.4,   0.00,   0.00, 1017.9,   67.7, -999.0
18-09-2022, 00:19:35,    280,    0.3,    8.3,   0.00,   0.00, 1017.8,   67.6, -999.0
18-09-2022, 00:19:45,    280,    0.6,    8.4,   0.00,   0.00, 1017.9,   67.7, -999.0
18-09-2022, 00:19:54,    281,    0.0,    8.3,   0.00,   0.00, 1017.8,   67.4, -999.0
18-09-2022, 00:20:04,    351,    0.0,    8.3,   0.00,   0.00, 1017.8,   67.5, -999.0
18-09-2022, 00:20:14,    348,    0.0,    8.3,   0.00,   0.00, 1017.8,   67.4, -999.0
18-09-2022, 00:20:24,    322,    1.5,    8.4,   0.00,   0.00, 1017.9,   67.7, -999.0
18-09-2022, 00:20:34,    322,    1.4,    8.5,   0.00,   0.00, 1018.0,   67.8, -999.0
18-09-2022, 00:20:44,    322,    0.6,    8.4,   0.00,   0.00, 1017.9,   67.9, -999.0
18-09-2022, 00:20:54,    322,    0.0,    8.3,   0.00,   0.00, 1017.8,   67.5, -999.0
18-09-2022, 00:21:04,    322,    0.5,    8.3,   0.00,   0.00, 1017.9,   67.8, -999.0
18-09-2022, 00:21:14,    323,    0.6,    8.3,   0.00,   0.00, 1017.9,   67.9, -999.0
18-09-2022, 00:21:24,    322,    0.5,    8.3,   0.00,   0.00, 1018.0,   68.0, -999.0
18-09-2022, 00:21:34,    322,    1.1,    8.4,   0.00,   0.00, 1018.0,   68.0, -999.0
18-09-2022, 00:21:44,    322,    1.4,    8.4,   0.00,   0.00, 1017.9,   67.9, -999.0
18-09-2022, 00:21:54,    322,    0.6,    8.3,   0.00,   0.00, 1017.9,   67.9, -999.0
18-09-2022, 00:22:04,    322,    1.9,    8.3,   0.00,   0.00, 1017.9,   68.1, -999.0
18-09-2022, 00:22:14,    340,    1.5,    8.4,   0.00,   0.00, 1017.9,   68.1, -999.0
18-09-2022, 00:22:24,    345,    0.5,    8.3,   0.00,   0.00, 1017.9,   68.0, -999.0
18-09-2022, 00:22:33,    345,    0.0,    8.3,   0.00,   0.00, 1017.8,   67.9, -999.0
18-09-2022, 00:22:44,    328,    1.0,    8.2,   0.00,   0.00, 1017.9,   68.1, -999.0
18-09-2022, 00:22:53,    344,    1.6,    8.3,   0.00,   0.00, 1017.9,   68.2, -999.0
18-09-2022, 00:23:03,    327,    1.0,    8.3,   0.00,   0.00, 1017.9,   68.1, -999.0
18-09-2022, 00:23:14,    328,    0.1,    8.2,   0.00,   0.00, 1017.8,   67.9, -999.0
18-09-2022, 00:23:23,    327,    0.3,    8.2,   0.00,   0.00, 1017.9,   68.0, -999.0
18-09-2022, 00:23:33,    327,    1.2,    8.3,   0.00,   0.00, 1017.9,   68.2, -999.0
18-09-2022, 00:23:43,    349,    1.6,    8.3,   0.00,   0.00, 1017.9,   68.2, -999.0
18-09-2022, 00:23:53,    346,    0.2,    8.2,   0.00,   0.00, 1017.9,   68.2, -999.0
18-09-2022, 00:24:03,    304,    1.4,    8.3,   0.00,   0.00, 1017.9,   68.3, -999.0
18-09-2022, 00:24:13,    296,    1.4,    8.4,   0.00,   0.00, 1017.9,   68.3, -999.0
18-09-2022, 00:24:23,    331,    2.1,    8.3,   0.00,   0.00, 1017.9,   68.2, -999.0
18-09-2022, 00:24:33,    302,    2.0,    8.4,   0.00,   0.00, 1018.0,   68.3, -999.0
18-09-2022, 00:24:43,    313,    1.5,    8.4,   0.00,   0.00, 1017.9,   68.2, -999.0
18-09-2022, 00:24:53,    309,    1.6,    8.3,   0.00,   0.00, 1017.9,   68.3, -999.0
18-09-2022, 00:25:03,    327,    1.7,    8.3,   0.00,   0.00, 1017.9,   68.3, -999.0
18-09-2022, 00:25:13,    327,    0.2,    8.3,   0.00,   0.00, 1017.8,   68.1, -999.0
18-09-2022, 00:25:23,    327,    0.6,    8.3,   0.00,   0.00, 1017.9,   68.4, -999.0
18-09-2022, 00:25:33,    326,    0.1,    8.2,   0.00,   0.00, 1017.9,   68.2, -999.0
18-09-2022, 00:25:43,    326,    0.0,    8.3,   0.00,   0.00, 1017.8,   67.9, -999.0
18-09-2022, 00:25:55,    327,    0.7,    8.3,   0.00,   0.00, 1017.8,   68.1, -999.0
18-09-2022, 00:26:02,    326,    2.2,    8.4,   0.00,   0.00, 1017.9,   68.3, -999.0
18-09-2022, 00:26:12,    318,    2.5,    8.4,   0.00,   0.00, 1017.9,   68.3, -999.0
18-09-2022, 00:26:23,    321,    1.9,    8.4,   0.00,   0.00, 1017.9,   68.4, -999.0
18-09-2022, 00:26:32,    321,    1.0,    8.3,   0.00,   0.00, 1017.9,   68.4, -999.0
18-09-2022, 00:26:42,    321,    0.8,    8.4,   0.00,   0.00, 1017.9,   68.4, -999.0
18-09-2022, 00:26:52,    318,    1.5,    8.4,   0.00,   0.00, 1017.9,   68.5, -999.0
18-09-2022, 00:27:02,    322,    2.2,    8.3,   0.00,   0.00, 1017.9,   68.4, -999.0
18-09-2022, 00:27:12,    322,    2.5,    8.4,   0.00,   0.00, 1017.9,   68.4, -999.0
18-09-2022, 00:27:22,    320,    1.6,    8.4,   0.00,   0.00, 1017.9,   68.5, -999.0
18-09-2022, 00:27:32,    319,    0.5,    8.3,   0.00,   0.00, 1017.9,   68.3, -999.0
18-09-2022, 00:27:42,    313,    0.8,    8.3,   0.00,   0.00, 1017.9,   68.3, -999.0
18-09-2022, 00:27:52,    290,    1.8,    8.3,   0.00,   0.00, 1018.0,   68.3, -999.0
18-09-2022, 00:28:02,    313,    1.5,    8.4,   0.00,   0.00, 1017.9,   68.4, -999.0
18-09-2022, 00:28:12,    334,    1.3,    8.4,   0.00,   0.00, 1017.9,   68.4, -999.0
18-09-2022, 00:28:22,    334,    0.7,    8.4,   0.00,   0.00, 1017.9,   68.3, -999.0
18-09-2022, 00:28:32,    325,    2.3,    8.4,   0.00,   0.00, 1017.9,   68.3, -999.0
18-09-2022, 00:28:42,    325,    0.7,    8.4,   0.00,   0.00, 1017.9,   68.3, -999.0
18-09-2022, 00:28:52,    325,    1.1,    8.4,   0.00,   0.00, 1017.9,   68.3, -999.0
18-09-2022, 00:29:02,    325,    0.6,    8.4,   0.00,   0.00, 1017.9,   68.3, -999.0
18-09-2022, 00:29:11,    324,    2.2,    8.3,   0.00,   0.00, 1017.9,   68.3, -999.0
18-09-2022, 00:29:21,    327,    2.0,    8.4,   0.00,   0.00, 1017.9,   68.3, -999.0
18-09-2022, 00:29:32,    322,    1.1,    8.4,   0.00,   0.00, 1017.9,   68.3, -999.0
18-09-2022, 00:29:41,    322,    0.7,    8.4,   0.00,   0.00, 1017.9,   68.3, -999.0
18-09-2022, 00:29:51,    322,    1.1,    8.3,   0.00,   0.00, 1017.9,   68.3, -999.0
18-09-2022, 00:30:01,    320,    1.9,    8.4,   0.00,   0.00, 1017.9,   68.3, -999.0
18-09-2022, 00:30:11,    320,    1.1,    8.3,   0.00,   0.00, 1017.9,   68.4, -999.0
18-09-2022, 00:30:21,    318,    0.1,    8.4,   0.00,   0.00, 1017.9,   68.2, -999.0
18-09-2022, 00:30:31,    318,    1.1,    8.4,   0.00,   0.00, 1017.9,   68.4, -999.0
18-09-2022, 00:30:41,    336,    1.2,    8.4,   0.00,   0.00, 1017.9,   68.4, -999.0
18-09-2022, 00:30:51,    329,    1.1,    8.4,   0.00,   0.00, 1017.9,   68.4, -999.0
18-09-2022, 00:31:01,    332,    1.6,    8.4,   0.00,   0.00, 1017.9,   68.4, -999.0
18-09-2022, 00:31:11,    332,    0.2,    8.3,   0.00,   0.00, 1017.9,   68.2, -999.0
18-09-2022, 00:31:21,    332,    2.1,    8.3,   0.00,   0.00, 1017.9,   68.4, -999.0
18-09-2022, 00:31:31,    331,    0.7,    8.2,   0.00,   0.00, 1017.9,   68.3, -999.0
18-09-2022, 00:31:41,    325,    1.1,    8.3,   0.00,   0.00, 1017.9,   68.4, -999.0
18-09-2022, 00:31:50,    323,    1.5,    8.4,   0.00,   0.00, 1017.9,   68.4, -999.0
18-09-2022, 00:32:01,    322,    1.0,    8.4,   0.00,   0.00, 1017.9,   68.5, -999.0
18-09-2022, 00:32:11,    322,    0.5,    8.3,   0.00,   0.00, 1017.8,   68.4, -999.0
18-09-2022, 00:32:20,    322,    0.2,    8.3,   0.00,   0.00, 1017.8,   68.3, -999.0
18-09-2022, 00:32:30,    270,    1.3,    8.4,   0.00,   0.00, 1017.9,   68.5, -999.0
18-09-2022, 00:32:41,    273,    1.0,    8.3,   0.00,   0.00, 1017.9,   68.5, -999.0
18-09-2022, 00:32:50,    295,    0.8,    8.4,   0.00,   0.00, 1017.9,   68.5, -999.0
18-09-2022, 00:33:00,    357,    1.2,    8.4,   0.00,   0.00, 1017.9,   68.5, -999.0
18-09-2022, 00:33:11,    309,    1.3,    8.3,   0.00,   0.00, 1017.9,   68.5, -999.0
18-09-2022, 00:33:20,    344,    1.6,    8.4,   0.00,   0.00, 1017.9,   68.5, -999.0
18-09-2022, 00:33:30,    328,    2.2,    8.4,   0.00,   0.00, 1017.9,   68.5, -999.0
18-09-2022, 00:33:40,    327,    0.9,    8.3,   0.00,   0.00, 1017.9,   68.4, -999.0
18-09-2022, 00:33:50,    324,    1.2,    8.3,   0.00,   0.00, 1017.9,   68.4, -999.0
18-09-2022, 00:34:00,    321,    0.4,    8.3,   0.00,   0.00, 1017.8,   68.4, -999.0
18-09-2022, 00:34:10,    321,    0.2,    8.3,   0.00,   0.00, 1017.8,   68.2, -999.0
18-09-2022, 00:34:20,    321,    0.0,    8.3,   0.00,   0.00, 1017.7,   68.1, -999.0
18-09-2022, 00:34:30,    320,    0.0,    8.3,   0.00,   0.00, 1017.7,   68.1, -999.0
18-09-2022, 00:34:40,    321,    1.5,    8.3,   0.00,   0.00, 1017.8,   68.4, -999.0
18-09-2022, 00:34:50,    326,    2.5,    8.4,   0.00,   0.00, 1017.9,   68.4, -999.0
18-09-2022, 00:35:00,    320,    2.3,    8.4,   0.00,   0.00, 1017.8,   68.5, -999.0
18-09-2022, 00:35:12,    302,    1.7,    8.3,   0.00,   0.00, 1017.9,   68.4, -999.0
18-09-2022, 00:35:20,    300,    1.3,    8.3,   0.00,   0.00, 1017.9,   68.5, -999.0
18-09-2022, 00:35:29,    299,    1.2,    8.3,   0.00,   0.00, 1017.9,   68.5, -999.0
18-09-2022, 00:35:40,    298,    0.3,    8.3,   0.00,   0.00, 1017.8,   68.3, -999.0
18-09-2022, 00:35:50,    337,    1.3,    8.4,   0.00,   0.00, 1017.9,   68.6, -999.0
18-09-2022, 00:35:59,    336,    1.7,    8.4,   0.00,   0.00, 1017.9,   68.5, -999.0
18-09-2022, 00:36:09,    337,    0.5,    8.3,   0.00,   0.00, 1017.9,   68.4, -999.0
18-09-2022, 00:36:19,    336,    0.1,    8.2,   0.00,   0.00, 1017.8,   68.1, -999.0
18-09-2022, 00:36:29,    337,    0.0,    8.3,   0.00,   0.00, 1017.7,   68.1, -999.0
18-09-2022, 00:36:39,    336,    0.0,    8.3,   0.00,   0.00, 1017.8,   68.1, -999.0
18-09-2022, 00:36:49,    337,    1.0,    8.3,   0.00,   0.00, 1017.9,   68.5, -999.0
18-09-2022, 00:36:59,    336,    0.3,    8.4,   0.00,   0.00, 1017.9,   68.5, -999.0
18-09-2022, 00:37:09,    336,    0.1,    8.3,   0.00,   0.00, 1017.8,   68.3, -999.0
18-09-2022, 00:37:19,    336,    0.3,    8.3,   0.00,   0.00, 1017.8,   68.2, -999.0
18-09-2022, 00:37:29,    336,    0.3,    8.3,   0.00,   0.00, 1017.9,   68.3, -999.0
18-09-2022, 00:37:39,    337,    1.1,    8.3,   0.00,   0.00, 1017.9,   68.4, -999.0
18-09-2022, 00:37:49,    336,    2.0,    8.4,   0.00,   0.00, 1017.9,   68.5, -999.0
18-09-2022, 00:37:59,    309,    1.5,    8.3,   0.00,   0.00, 1017.9,   68.5, -999.0
18-09-2022, 00:38:09,    313,    0.8,    8.4,   0.00,   0.00, 1017.9,   68.5, -999.0
18-09-2022, 00:38:19,    313,    0.1,    8.4,   0.00,   0.00, 1017.8,   68.2, -999.0
18-09-2022, 00:38:29,    294,    0.9,    8.3,   0.00,   0.00, 1017.9,   68.4, -999.0
18-09-2022, 00:38:38,    291,    1.3,    8.4,   0.00,   0.00, 1017.9,   68.5, -999.0
18-09-2022, 00:38:49,    306,    1.2,    8.4,   0.00,   0.00, 1017.9,   68.4, -999.0
18-09-2022, 00:38:58,    328,    0.9,    8.4,   0.00,   0.00, 1017.9,   68.4, -999.0
18-09-2022, 00:39:08,    327,    1.1,    8.4,   0.00,   0.00, 1017.9,   68.5, -999.0
18-09-2022, 00:39:19,    326,    2.7,    8.4,   0.00,   0.00, 1017.9,   68.5, -999.0
18-09-2022, 00:39:28,    293,    1.8,    8.4,   0.00,   0.00, 1017.9,   68.4, -999.0
18-09-2022, 00:39:38,    295,    0.0,    8.3,   0.00,   0.00, 1017.8,   68.0, -999.0
18-09-2022, 00:39:48,    302,    0.0,    8.3,   0.00,   0.00, 1017.8,   68.2, -999.0
18-09-2022, 00:39:58,    303,    0.0,    8.3,   0.00,   0.00, 1017.8,   68.1, -999.0
18-09-2022, 00:40:08,    302,    0.0,    8.2,   0.00,   0.00, 1017.8,   68.0, -999.0
18-09-2022, 00:40:18,    302,    0.0,    8.3,   0.00,   0.00, 1017.8,   68.1, -999.0
18-09-2022, 00:40:28,    303,    0.0,    8.2,   0.00,   0.00, 1017.7,   68.0, -999.0
18-09-2022, 00:40:38,    303,    0.0,    8.2,   0.00,   0.00, 1017.8,   68.0, -999.0
18-09-2022, 00:40:48,    304,    0.5,    8.3,   0.00,   0.00, 1017.9,   68.3, -999.0
18-09-2022, 00:40:58,    303,    0.9,    8.4,   0.00,   0.00, 1017.9,   68.5, -999.0
18-09-2022, 00:41:08,    272,    0.5,    8.3,   0.00,   0.00, 1017.8,   68.3, -999.0
18-09-2022, 00:41:18,    286,    1.3,    8.4,   0.00,   0.00, 1017.9,   68.5, -999.0
18-09-2022, 00:41:28,    288,    1.0,    8.3,   0.00,   0.00, 1017.9,   68.6, -999.0
18-09-2022, 00:41:38,    304,    0.9,    8.3,   0.00,   0.00, 1017.9,   68.5, -999.0
18-09-2022, 00:41:48,    302,    2.2,    8.3,   0.00,   0.00, 1018.0,   68.6, -999.0
18-09-2022, 00:41:58,    302,    0.9,    8.4,   0.00,   0.00, 1017.9,   68.6, -999.0
18-09-2022, 00:42:07,    307,    0.2,    8.4,   0.00,   0.00, 1017.9,   68.4, -999.0
18-09-2022, 00:42:17,    318,    0.5,    8.3,   0.00,   0.00, 1017.8,   68.4, -999.0
18-09-2022, 00:42:28,    281,    0.3,    8.3,   0.00,   0.00, 1017.8,   68.4, -999.0
18-09-2022, 00:42:37,    299,    2.1,    8.4,   0.00,   0.00, 1017.9,   68.7, -999.0
18-09-2022, 00:42:47,    290,    2.0,    8.3,   0.00,   0.00, 1017.9,   68.7, -999.0
18-09-2022, 00:42:57,    276,    1.1,    8.4,   0.00,   0.00, 1017.9,   68.7, -999.0
18-09-2022, 00:43:07,    276,    0.5,    8.4,   0.00,   0.00, 1017.9,   68.7, -999.0
18-09-2022, 00:43:17,    276,    0.0,    8.3,   0.00,   0.00, 1017.8,   68.4, -999.0
18-09-2022, 00:43:27,    276,    0.3,    8.3,   0.00,   0.00, 1017.9,   68.5, -999.0
18-09-2022, 00:43:37,    276,    0.1,    8.3,   0.00,   0.00, 1017.9,   68.4, -999.0
18-09-2022, 00:43:47,    276,    0.0,    8.2,   0.00,   0.00, 1017.8,   68.3, -999.0
18-09-2022, 00:43:57,    286,    0.0,    8.3,   0.00,   0.00, 1017.9,   68.3, -999.0
18-09-2022, 00:44:07,    288,    0.0,    8.3,   0.00,   0.00, 1017.8,   68.3, -999.0
18-09-2022, 00:44:17,    291,    0.7,    8.3,   0.00,   0.00, 1017.9,   68.6, -999.0
18-09-2022, 00:44:27,    290,    1.9,    8.3,   0.00,   0.00, 1018.0,   68.6, -999.0
18-09-2022, 00:44:37,    286,    1.2,    8.4,   0.00,   0.00, 1018.0,   68.7, -999.0
18-09-2022, 00:44:47,    294,    0.2,    8.3,   0.00,   0.00, 1017.9,   68.5, -999.0
18-09-2022, 00:44:57,    294,    0.3,    8.3,   0.00,   0.00, 1017.9,   68.6, -999.0
18-09-2022, 00:45:07,    294,    0.3,    8.4,   0.00,   0.00, 1017.9,   68.6, -999.0
18-09-2022, 00:45:16,    287,    1.7,    8.4,   0.00,   0.00, 1017.9,   68.7, -999.0
18-09-2022, 00:45:27,    300,    1.4,    8.3,   0.00,   0.00, 1017.9,   68.8, -999.0
18-09-2022, 00:45:37,    311,    1.0,    8.3,   0.00,   0.00, 1017.9,   68.7, -999.0
18-09-2022, 00:45:46,    326,    2.1,    8.4,   0.00,   0.00, 1017.9,   68.8, -999.0
18-09-2022, 00:45:56,    309,    2.4,    8.3,   0.00,   0.00, 1017.9,   68.7, -999.0
18-09-2022, 00:46:06,    309,    1.8,    8.3,   0.00,   0.00, 1017.9,   68.7, -999.0
18-09-2022, 00:46:16,    308,    0.6,    8.3,   0.00,   0.00, 1017.9,   68.7, -999.0
18-09-2022, 00:46:26,    309,    0.3,    8.2,   0.00,   0.00, 1017.9,   68.6, -999.0
18-09-2022, 00:46:36,    320,    0.4,    8.3,   0.00,   0.00, 1017.9,   68.6, -999.0